STARLINK-2298 (48022 NORAD) Tracking and Keplerian Element Data

This shows tracking and keplerian element data for the satellite.

Feedback or suggestion? Click here.




ElementValue
Catalog48022
NameSTARLINK-2298
Epoch Orbit1526
Epoch Day173.86750352
Epoch Year2021
RAAN136.678
Inclination53.056
Eccentricity0.0001438
Argument of Perigee65.4259
Mean Anonmoly294.688
Mean Motion15.06393028
Decay Rate-1.574E-05
L11 48022U 21024AX 21173.86750352 -.00001574 00000-0 -86819-4 0 9990
L22 48022 53.0560 136.6780 0001438 65.4259 294.6880 15.06393028 15263

Live tracking and technical data element details for STARLINK-2298 (NORAD 48022). STARLINK-2298 can be tracked NOW for your location showing map with azimuth and elevation plus other details from your city location.

Track the satellite on the map from your city or location and see movement details for azimuth, elevation, latitude, longitude, range, height, and movement on the map or in text.







IsCatalogInMostPopularTable: catalog: 48022, numindb: 38
Update: records affected: 1



GetName: 48022 STARLINK-2298

Hit Count: updated at: Thu, 24 Jun 2021 04:19:44 GMT